Babanakira Airport


Codes: AGGI/MBU
Name: Babanakira Airport
City: Mbambanakira
Country: Solomon Islands
Elevation: 0 ft.

Photos at Babanakira Airport


   Photos courtesy of SpottingLog. You can add your own sightings and photos by signing up for a free trial today.



No photos found.

Weather at Babanakira Airport


Time (UTC)DescriptionTempratureWindCloud coverageVisibilityPressureHumidity
21-Feb-2024 03:00Light Rain28°C9 mph, NW94%10000m1009hPa82%
21-Feb-2024 06:00Light Rain28°C11 mph, NW93%10000m1009hPa86%
21-Feb-2024 09:00Light Rain28°C7 mph, NW100%10000m1010hPa86%
21-Feb-2024 12:00Light Rain27°C4 mph, N100%10000m1011hPa87%
21-Feb-2024 15:00Light Rain27°C7 mph, N81%10000m1009hPa86%
21-Feb-2024 18:00Light Rain27°C4 mph, N82%10000m1010hPa85%
21-Feb-2024 21:00Broken Clouds28°C4 mph, N70%10000m1011hPa80%
22-Feb-2024 00:00Light Rain30°C7 mph, W71%10000m1011hPa77%
22-Feb-2024 03:00Moderate Rain29°C7 mph, NW100%4610m1009hPa82%
22-Feb-2024 06:00Moderate Rain28°C7 mph, NW100%6979m1009hPa85%
22-Feb-2024 09:00Light Rain27°C7 mph, NW100%10000m1011hPa87%
22-Feb-2024 12:00Light Rain27°C4 mph, N100%10000m1012hPa85%
22-Feb-2024 15:00Light Rain27°C4 mph, N99%10000m1010hPa85%
22-Feb-2024 18:00Light Rain27°C7 mph, N99%10000m1010hPa84%
22-Feb-2024 21:00Light Rain27°C7 mph, N95%10000m1012hPa84%
23-Feb-2024 00:00Light Rain27°C7 mph, N97%10000m1012hPa86%
23-Feb-2024 03:00Light Rain28°C9 mph, NW100%10000m1009hPa84%
23-Feb-2024 06:00Moderate Rain27°C9 mph, W100%6850m1009hPa89%
23-Feb-2024 09:00Moderate Rain26°C11 mph, W100%2064m1011hPa94%
23-Feb-2024 12:00Heavy Intensity Rain26°C4 mph, NW100%2155m1012hPa96%
23-Feb-2024 15:00Moderate Rain26°C9 mph, NW100%9142m1010hPa94%
23-Feb-2024 18:00Moderate Rain26°C9 mph, NW100%2829m1010hPa93%
23-Feb-2024 21:00Light Rain26°C4 mph, NW100%10000m1011hPa89%
24-Feb-2024 00:00Light Rain28°C7 mph, NW100%10000m1011hPa81%
24-Feb-2024 03:00Light Rain28°C7 mph, W100%10000m1009hPa85%
24-Feb-2024 06:00Moderate Rain27°C4 mph, W100%10000m1008hPa85%
24-Feb-2024 09:00Light Rain27°C2 mph, NW100%10000m1010hPa84%
24-Feb-2024 12:00Overcast Clouds27°C2 mph, NW100%10000m1011hPa84%
24-Feb-2024 15:00Light Rain27°C2 mph, NW100%10000m1009hPa84%
24-Feb-2024 18:00Overcast Clouds26°C2 mph, NE99%10000m1009hPa84%
24-Feb-2024 21:00Overcast Clouds27°C2 mph, E100%10000m1011hPa82%
25-Feb-2024 00:00Light Rain29°C2 mph, S98%10000m1011hPa77%
25-Feb-2024 03:00Light Rain29°C2 mph, SW95%10000m1008hPa78%
25-Feb-2024 06:00Moderate Rain28°C2 mph, N95%10000m1008hPa81%
25-Feb-2024 09:00Moderate Rain26°C4 mph, N100%10000m1010hPa85%
25-Feb-2024 12:00Light Rain27°C2 mph, NE100%10000m1011hPa82%
25-Feb-2024 15:00Overcast Clouds26°C2 mph, NE100%10000m1009hPa81%
25-Feb-2024 18:00Light Rain26°C2 mph, NE100%10000m1009hPa82%
25-Feb-2024 21:00Overcast Clouds28°C2 mph, E93%10000m1011hPa79%
26-Feb-2024 00:00Light Rain29°C4 mph, SW96%10000m1010hPa76%